| time (UTC) | temp F | wind direction | speed knots | gust knots | rain 1hr in | rain 24hr in | rain mn in | humidity % | barometer mb |
| 20260510231522 | 55 | 78 | 0.0 | 0.0 | 0.00 | 0.04 | 0.00 | 93 | 1005.5 |
| 20260510230032 | 55 | 78 | 0.0 | 0.0 | 0.00 | 0.04 | 0.00 | 93 | 1005.6 |
| 20260510224528 | 55 | 78 | 0.0 | 0.0 | 0.00 | 0.04 | 0.00 | 93 | 1005.8 |
| 20260510223017 | 56 | 78 | 0.0 | 0.0 | 0.00 | 0.04 | 0.00 | 92 | 1006.0 |
| 20260510221521 | 56 | 78 | 0.0 | 0.0 | 0.01 | 0.04 | 0.00 | 92 | 1006.1 |
| 20260510220014 | 56 | 78 | 0.0 | 0.9 | 0.01 | 0.04 | 0.00 | 91 | 1006.1 |
| 20260510214513 | 57 | 78 | 0.0 | 0.0 | 0.01 | 0.04 | 0.04 | 91 | 1006.5 |
| 20260510213013 | 57 | 78 | 0.0 | 0.0 | 0.01 | 0.04 | 0.04 | 91 | 1006.5 |
| 20260510211512 | 58 | 78 | 0.0 | 0.0 | 0.01 | 0.03 | 0.03 | 90 | 1006.6 |
| 20260510210011 | 58 | 78 | 0.0 | 0.0 | 0.02 | 0.03 | 0.03 | 88 | 1006.8 |
| 20260510204511 | 58 | 78 | 0.0 | 0.0 | 0.02 | 0.03 | 0.03 | 88 | 1006.9 |
| 20260510203012 | 58 | 76 | 0.0 | 0.9 | 0.02 | 0.03 | 0.03 | 87 | 1007.1 |
| 20260510201508 | 59 | 76 | 0.0 | 0.9 | 0.02 | 0.02 | 0.02 | 85 | 1007.3 |
| 20260510200007 | 59 | 76 | 0.0 | 0.0 | 0.02 | 0.02 | 0.02 | 81 | 1007.0 |
| 20260510194511 | 60 | 76 | 0.0 | 0.0 | 0.01 | 0.01 | 0.01 | 80 | 1007.0 |
| 20260510193005 | 61 | 76 | 0.0 | 0.9 | 0.01 | 0.01 | 0.01 | 77 | 1006.9 |
| 20260510191505 | 61 | 76 | 0.0 | 0.0 | 0.00 | 0.00 | 0.00 | 72 | 1007.0 |
| 20260510190004 | 61 | 76 | 0.0 | 1.7 | 0.00 | 0.00 | 0.00 | 68 | 1006.8 |
| 20260510184504 | 62 | 76 | 0.0 | 3.5 | 0.00 | 0.00 | 0.00 | 67 | 1006.3 |
| 20260510183003 | 64 | 79 | 0.0 | 3.5 | 0.00 | 0.00 | 0.00 | 62 | 1006.0 |
| 20260510181502 | 66 | 92 | 0.0 | 4.3 | 0.00 | 0.00 | 0.00 | 55 | 1005.9 |
| 20260510180004 | 68 | 76 | 0.9 | 5.2 | 0.00 | 0.00 | 0.00 | 52 | 1005.6 |
| 20260510174503 | 69 | 304 | 0.9 | 3.5 | 0.00 | 0.00 | 0.00 | 48 | 1005.5 |
| 20260510173001 | 70 | 82 | 0.0 | 0.0 | 0.00 | 0.00 | 0.00 | 51 | 1005.0 |
| 20260510171612 | 70 | 82 | 0.0 | 1.7 | 0.00 | 0.00 | 0.00 | 51 | 1004.9 |
| 20260510170100 | 70 | 82 | 0.0 | 1.7 | 0.00 | 0.00 | 0.00 | 50 | 1004.8 |
| 20260510164611 | 71 | 37 | 0.9 | 2.6 | 0.00 | 0.00 | 0.00 | 48 | 1004.9 |
| 20260510163143 | 71 | 82 | 0.0 | 3.5 | 0.00 | 0.00 | 0.00 | 49 | 1005.0 |
| 20260510161555 | 72 | 94 | 0.0 | 4.3 | 0.00 | 0.00 | 0.00 | 49 | 1005.2 |
| 20260510160059 | 73 | 101 | 0.0 | 3.5 | 0.00 | 0.00 | 0.00 | 48 | 1005.4 |
| 20260510154554 | 73 | 92 | 0.0 | 2.6 | 0.00 | 0.00 | 0.00 | 48 | 1005.6 |
| 20260510153101 | 73 | 90 | 0.0 | 2.6 | 0.00 | 0.00 | 0.00 | 50 | 1005.9 |
| 20260510151600 | 72 | 83 | 0.0 | 2.6 | 0.00 | 0.00 | 0.00 | 48 | 1006.2 |
| 20260510150053 | 72 | 70 | 0.9 | 2.6 | 0.00 | 0.00 | 0.00 | 49 | 1006.4 |
| 20260510144549 | 72 | 95 | 0.0 | 1.7 | 0.00 | 0.00 | 0.00 | 50 | 1006.4 |
| 20260510143057 | 73 | 86 | 0.0 | 1.7 | 0.00 | 0.00 | 0.00 | 48 | 1006.7 |
| 20260510141542 | 72 | 52 | 0.0 | 3.5 | 0.00 | 0.00 | 0.00 | 51 | 1006.7 |
| 20260510140041 | 73 | 82 | 0.0 | 2.6 | 0.00 | 0.00 | 0.00 | 49 | 1006.8 |
| 20260510134542 | 73 | 96 | 0.0 | 5.2 | 0.00 | 0.00 | 0.00 | 49 | 1007.0 |
| 20260510133039 | 73 | 96 | 0.9 | 4.3 | 0.00 | 0.00 | 0.00 | 50 | 1007.1 |
| 20260510131537 | 73 | 90 | 0.9 | 2.6 | 0.00 | 0.00 | 0.00 | 50 | 1007.2 |
| 20260510130036 | 74 | 57 | 0.9 | 3.5 | 0.00 | 0.00 | 0.00 | 49 | 1007.4 |
| 20260510124535 | 74 | 74 | 0.9 | 4.3 | 0.00 | 0.00 | 0.00 | 48 | 1007.5 |
| 20260510123032 | 75 | 72 | 0.9 | 4.3 | 0.00 | 0.00 | 0.00 | 48 | 1007.7 |
| 20260510121531 | 74 | 88 | 0.9 | 4.3 | 0.00 | 0.00 | 0.00 | 46 | 1007.9 |
| 20260510120031 | 74 | 103 | 0.9 | 3.5 | 0.00 | 0.00 | 0.00 | 46 | 1008.0 |
| 20260510114529 | 73 | 76 | 0.9 | 6.1 | 0.00 | 0.00 | 0.00 | 48 | 1008.1 |
| 20260510113026 | 73 | 96 | 0.9 | 3.5 | 0.00 | 0.00 | 0.00 | 47 | 1008.5 |
| 20260510111524 | 73 | 65 | 0.9 | 6.1 | 0.00 | 0.00 | 0.00 | 47 | 1008.6 |
| 20260510110027 | 74 | 30 | 0.9 | 3.5 | 0.00 | 0.00 | 0.00 | 46 | 1008.6 |
| 20260510104521 | 73 | 78 | 0.9 | 4.3 | 0.00 | 0.00 | 0.00 | 47 | 1008.8 |
| 20260510103025 | 73 | 81 | 1.7 | 6.1 | 0.00 | 0.00 | 0.00 | 45 | 1009.0 |
| 20260510101517 | 73 | 97 | 2.6 | 6.1 | 0.00 | 0.00 | 0.00 | 45 | 1009.2 |
| 20260510100028 | 72 | 44 | 0.0 | 7.0 | 0.00 | 0.00 | 0.00 | 46 | 1009.3 |
| 20260510094515 | 71 | 55 | 0.0 | 3.5 | 0.00 | 0.00 | 0.00 | 50 | 1009.4 |
| 20260510093009 | 70 | 43 | 0.9 | 4.3 | 0.00 | 0.00 | 0.00 | 51 | 1009.6 |
| 20260510091505 | 70 | 97 | 0.9 | 4.3 | 0.00 | 0.00 | 0.00 | 57 | 1009.8 |
| 20260510090005 | 69 | 76 | 0.0 | 2.6 | 0.00 | 0.00 | 0.00 | 58 | 1009.9 |
| 20260510084501 | 68 | 91 | 0.0 | 0.0 | 0.00 | 0.00 | 0.00 | 57 | 1010.1 |
| 20260510083058 | 67 | 94 | 0.0 | 0.0 | 0.00 | 0.00 | 0.00 | 60 | 1010.2 |
| 20260510081557 | 66 | 101 | 0.0 | 0.0 | 0.00 | 0.00 | 0.00 | 62 | 1010.2 |
| 20260510080051 | 65 | 97 | 0.0 | 0.0 | 0.00 | 0.00 | 0.00 | 61 | 1010.3 |
| 20260510074548 | 64 | 92 | 0.0 | 0.0 | 0.00 | 0.00 | 0.00 | 64 | 1010.4 |
| 20260510073046 | 64 | 105 | 0.0 | 0.0 | 0.00 | 0.00 | 0.00 | 64 | 1010.7 |
| 20260510071546 | 63 | 86 | 0.0 | 0.0 | 0.00 | 0.00 | 0.00 | 65 | 1010.7 |
| 20260510070046 | 62 | 74 | 0.0 | 0.0 | 0.00 | 0.00 | 0.00 | 68 | 1010.8 |
| 20260510064538 | 61 | 88 | 0.0 | 0.0 | 0.00 | 0.00 | 0.00 | 67 | 1010.9 |
| 20260510063035 | 60 | 62 | 0.0 | 0.0 | 0.00 | 0.00 | 0.00 | 69 | 1010.9 |
| 20260510061532 | 60 | 80 | 0.0 | 0.0 | 0.00 | 0.00 | 0.00 | 68 | 1011.1 |
| 20260510060029 | 59 | 146 | 0.0 | 0.0 | 0.00 | 0.00 | 0.00 | 70 | 1011.1 |
| 20260510054526 | 57 | 79 | 0.0 | 0.0 | 0.00 | 0.00 | 0.00 | 72 | 1011.1 |
| 20260510053026 | 56 | 88 | 0.0 | 0.0 | 0.00 | 0.00 | 0.00 | 73 | 1011.2 |
| 20260510051524 | 55 | 94 | 0.0 | 0.0 | 0.00 | 0.00 | 0.00 | 74 | 1011.2 |
| 20260510050022 | 54 | 142 | 0.0 | 0.0 | 0.00 | 0.00 | 0.00 | 75 | 1011.4 |
| 20260510044530 | 54 | 86 | 0.0 | 0.0 | 0.00 | 0.00 | 0.00 | 75 | 1011.4 |
| 20260510043022 | 54 | 96 | 0.0 | 0.0 | 0.00 | 0.00 | 0.00 | 75 | 1011.5 |
| 20260510041520 | 53 | 90 | 0.0 | 0.0 | 0.00 | 0.00 | 0.00 | 76 | 1011.4 |
| 20260510040019 | 53 | 90 | 0.0 | 0.0 | 0.00 | 0.00 | 0.00 | 75 | 1011.6 |
| 20260510034519 | 53 | 90 | 0.0 | 0.0 | 0.00 | 0.00 | 0.00 | 77 | 1011.5 |
| 20260510033017 | 53 | 90 | 0.0 | 0.0 | 0.00 | 0.00 | 0.00 | 75 | 1011.6 |
| 20260510031516 | 54 | 90 | 0.0 | 0.0 | 0.00 | 0.00 | 0.00 | 74 | 1011.6 |
| 20260510030014 | 54 | 91 | 0.0 | 0.0 | 0.00 | 0.00 | 0.00 | 74 | 1011.7 |
| 20260510024638 | 54 | 91 | 0.0 | 0.0 | 0.00 | 0.00 | 0.00 | 74 | 1011.8 |
| 20260510023013 | 54 | 82 | 0.0 | 0.0 | 0.00 | 0.00 | 0.00 | 74 | 1012.0 |
| 20260510021511 | 53 | 83 | 0.0 | 0.0 | 0.00 | 0.00 | 0.00 | 75 | 1012.0 |
| 20260510020009 | 54 | 83 | 0.0 | 0.0 | 0.00 | 0.00 | 0.00 | 74 | 1012.1 |
| 20260510014508 | 54 | 83 | 0.0 | 0.0 | 0.00 | 0.00 | 0.00 | 73 | 1012.3 |
| 20260510013007 | 55 | 83 | 0.0 | 0.0 | 0.00 | 0.00 | 0.00 | 72 | 1012.3 |
| 20260510011504 | 55 | 82 | 0.0 | 0.0 | 0.00 | 0.00 | 0.00 | 72 | 1012.4 |
| 20260510010002 | 55 | 81 | 0.0 | 0.0 | 0.00 | 0.00 | 0.00 | 72 | 1012.5 |
| 20260510004601 | 55 | 19 | 0.0 | 0.0 | 0.00 | 0.00 | 0.00 | 72 | 1012.7 |
| 20260510003059 | 55 | 19 | 0.0 | 0.0 | 0.00 | 0.00 | 0.00 | 72 | 1012.9 |
| 20260510001557 | 56 | 19 | 0.0 | 0.0 | 0.00 | 0.00 | 0.00 | 71 | 1013.0 |
| 20260510000106 | 56 | 19 | 0.0 | 0.0 | 0.00 | 0.00 | 0.00 | 70 | 1013.2 |
| 20260509234601 | 56 | 19 | 0.0 | 0.0 | 0.00 | 0.00 | 0.00 | 70 | 1013.2 |
| 20260509233054 | 57 | 19 | 0.0 | 0.0 | 0.00 | 0.00 | 0.00 | 70 | 1013.3 |